Total_Precipitation_Accumulation
1.11 1.09 0.95 0.85 0.83 0.86 0.94 0.97 0.86 0.68 0.62 0.60 0.49 0.36 0.31 0.27 0.20 0.20 0.28 0.22 0.13 0.10 0.08 0.07 0.09 0.11 0.15 0.24 0.35 0.46 0.52 0.58 0.61 0.62 0.61 0.61 0.61 0.62
0.98 0.98 0.95 0.92 0.92 0.88 0.93 0.97 0.93 0.77 0.56 0.61 0.58 0.39 0.37 0.22 0.19 0.20 0.23 0.20 0.14 0.10 0.07 0.07 0.08 0.09 0.11 0.15 0.21 0.29 0.37 0.42 0.48 0.52 0.50 0.47 0.45 0.47
0.70 0.69 0.67 0.68 0.70 0.70 0.71 0.73 0.79 0.77 0.59 0.62 0.78 0.62 0.51 0.36 0.29 0.30 0.22 0.18 0.19 0.13 0.09 0.08 0.08 0.10 0.14 0.14 0.16 0.20 0.25 0.28 0.31 0.39 0.44 0.44 0.42 0.41
0.60 0.54 0.48 0.49 0.54 0.52 0.53 0.57 0.65 0.74 0.69 0.61 0.70 0.74 0.64 0.46 0.40 0.39 0.29 0.20 0.23 0.20 0.13 0.10 0.09 0.10 0.15 0.17 0.16 0.16 0.18 0.20 0.22 0.26 0.32 0.37 0.39 0.41
0.43 0.36 0.32 0.33 0.39 0.41 0.44 0.47 0.51 0.67 0.68 0.62 0.64 0.76 0.71 0.57 0.57 0.49 0.46 0.48 0.35 0.29 0.19 0.13 0.14 0.15 0.17 0.21 0.20 0.20 0.19 0.20 0.21 0.25 0.30 0.35 0.40 0.43
0.35 0.26 0.21 0.23 0.29 0.34 0.38 0.41 0.43 0.46 0.53 0.58 0.60 0.69 0.68 0.56 0.67 0.65 0.60 0.60 0.55 0.44 0.36 0.22 0.17 0.20 0.22 0.22 0.24 0.27 0.29 0.29 0.30 0.34 0.36 0.40 0.45 0.49
0.28 0.21 0.19 0.18 0.20 0.22 0.26 0.33 0.36 0.38 0.40 0.47 0.54 0.60 0.68 0.59 0.54 0.61 0.64 0.65 0.67 0.71 0.74 0.51 0.29 0.25 0.26 0.27 0.29 0.35 0.43 0.46 0.47 0.51 0.56 0.58 0.61 0.64
0.19 0.15 0.14 0.14 0.15 0.17 0.18 0.17 0.17 0.20 0.26 0.34 0.39 0.45 0.54 0.59 0.52 0.55 0.63 0.66 0.70 0.75 0.89 0.96 0.72 0.53 0.45 0.30 0.27 0.33 0.45 0.56 0.60 0.65 0.72 0.81 0.88 0.87
0.12 0.09 0.07 0.07 0.08 0.07 0.08 0.08 0.10 0.08 0.09 0.18 0.19 0.18 0.23 0.28 0.36 0.51 0.67 0.73 0.83 0.96 0.99 1.13 1.28 1.11 0.76 0.50 0.38 0.30 0.37 0.49 0.57 0.64 0.73 0.78 0.91 1.06
0.11 0.08 0.05 0.04 0.04 0.04 0.05 0.08 0.07 0.03 0.02 0.03 0.03 0.03 0.04 0.07 0.11 0.19 0.40 0.69 0.84 0.99 1.09 1.27 1.47 1.74 1.39 0.91 0.67 0.48 0.45 0.48 0.55 0.60 0.68 0.77 0.82 0.92
0.09 0.08 0.06 0.03 0.02 0.02 0.03 0.05 0.04 0.02 0.01 0.01 0.01 0.00 0.01 0.01 0.03 0.09 0.15 0.26 0.50 0.88 1.13 1.35 1.50 1.69 2.04 1.69 1.06 0.66 0.48 0.44 0.48 0.55 0.60 0.69 0.74 0.77
0.07 0.05 0.04 0.03 0.02 0.01 0.02 0.02 0.02 0.01 0.01 0.01 0.02 0.02 0.01 0.01 0.01 0.03 0.06 0.11 0.21 0.43 0.69 0.85 1.01 1.22 1.72 2.09 1.79 1.21 0.79 0.57 0.45 0.46 0.50 0.59 0.69 0.67
0.05 0.05 0.03 0.02 0.01 0.01 0.01 0.01 0.00 0.00 0.00 0.00 0.01 0.02 0.03 0.02 0.01 0.02 0.05 0.11 0.16 0.19 0.25 0.42 0.68 0.85 1.04 1.47 1.73 1.68 1.34 1.04 0.82 0.65 0.58 0.58 0.64 0.70
0.03 0.03 0.02 0.01 0.01 0.00 0.00 0.00 0.00 0.00 0.00 0.01 0.01 0.01 0.01 0.01 0.02 0.02 0.05 0.08 0.11 0.17 0.22 0.32 0.58 0.73 0.89 1.12 1.32 1.44 1.46 1.36 1.22 1.09 0.98 0.91 0.82 0.80
0.02 0.02 0.01 0.01 0.00 0.00 0.00 0.00 0.00 0.00 0.00 0.00 0.01 0.01 0.01 0.01 0.01 0.02 0.03 0.04 0.05 0.04 0.05 0.13 0.26 0.37 0.56 0.83 0.99 1.03 1.10 1.20 1.25 1.24 1.24 1.20 1.12 1.03
0.01 0.01 0.00 0.00 0.00 0.00 0.00 0.00 0.00 0.00 0.00 0.00 0.01 0.01 0.01 0.00 0.01 0.01 0.02 0.03 0.05 0.05 0.04 0.05 0.09 0.16 0.26 0.37 0.46 0.51 0.59 0.73 0.90 1.01 1.16 1.33 1.38 1.37
0.01 0.01 0.01 0.01 0.00 0.00 0.00 0.00 0.00 0.00 0.00 0.00 0.00 0.01 0.00 0.01 0.01 0.01 0.02 0.02 0.03 0.04 0.05 0.04 0.05 0.09 0.14 0.23 0.31 0.35 0.39 0.41 0.49 0.66 0.88 1.16 1.26 1.15
0.00 0.00 0.01 0.01 0.00 0.01 0.01 0.00 0.00 0.00 0.00 0.00 0.00 0.00 0.00 0.01 0.02 0.02 0.01 0.02 0.02 0.03 0.05 0.06 0.06 0.10 0.17 0.18 0.14 0.21 0.32 0.36 0.39 0.46 0.55 0.67 0.76 0.71
0.00 0.00 0.00 0.00 0.00 0.00 0.01 0.01 0.01 0.00 0.00 0.00 0.00 0.01 0.01 0.01 0.01 0.02 0.03 0.03 0.03 0.04 0.07 0.09 0.10 0.10 0.15 0.21 0.21 0.10 0.12 0.21 0.30 0.42 0.47 0.46 0.45 0.39
0.00 0.00 0.00 0.00 0.00 0.00 0.00 0.00 0.00 0.00 0.00 0.00 0.00 0.01 0.01 0.01 0.01 0.01 0.02 0.02 0.03 0.04 0.05 0.07 0.10 0.12 0.13 0.16 0.21 0.23 0.13 0.10 0.16 0.25 0.33 0.35 0.32 0.23
0.00 0.00 0.00 0.00 0.00 0.00 0.00 0.00 0.00 0.00 0.00 0.00 0.00 0.00 0.00 0.01 0.01 0.01 0.01 0.01 0.03 0.04 0.06 0.07 0.08 0.09 0.15 0.21 0.25 0.31 0.29 0.16 0.09 0.10 0.18 0.26 0.32 0.31
0.00 0.00 0.00 0.00 0.00 0.00 0.00 0.00 0.00 0.00 0.00 0.00 0.00 0.00 0.00 0.00 0.00 0.01 0.01 0.02 0.02 0.02 0.03 0.05 0.06 0.09 0.15 0.23 0.28 0.29 0.30 0.29 0.21 0.12 0.09 0.12 0.19 0.27
0.00 0.00 0.00 0.00 0.00 0.00 0.00 0.00 0.00 0.00 0.00 0.00 0.00 0.00 0.00 0.00 0.00 0.00 0.00 0.01 0.01 0.01 0.02 0.04 0.06 0.10 0.13 0.18 0.24 0.28 0.28 0.27 0.29 0.29 0.23 0.11 0.06 0.07